IK1EJA-5 Weather Reports


Display with metric or nautical units.
time (UTC)temp
F
wind
direction
speed
MPH
gust
MPH
rain 1hr
in
rain 24hr
in
rain mn
in
humidity
%
barometer
mb
20260507105602 0 182 4.0 5.0 0.00 0.00 0.04 78 1014.3
20260507105102 0 179 7.0 9.0 0.00 0.00 0.04 79 1014.3
20260507104603 0 103 6.0 11.0 0.00 0.00 0.04 83 1014.2
20260507104103 0 163 7.0 8.0 0.00 0.00 0.04 85 1014.3
20260507103603 0 187 6.0 9.0 0.00 0.00 0.04 81 1014.3
20260507103103 0 101 5.0 10.0 0.00 0.00 0.04 82 1014.3
20260507102603 0 159 7.0 9.0 0.00 0.00 0.04 83 1014.5
20260507102102 0 76 4.0 5.0 0.00 0.00 0.04 81 1014.6
20260507101602 0 140 4.0 9.0 0.00 0.00 0.04 80 1014.3
20260507101103 0 125 7.0 11.0 0.00 0.00 0.04 80 1014.3
20260507100603 0 161 5.0 6.0 0.00 0.00 0.04 80 1014.2
20260507095602 0 174 7.0 8.0 0.00 0.00 0.04 78 1014.5
20260507095103 0 103 2.0 3.0 0.00 0.00 0.04 78 1014.2
20260507094603 0 132 6.0 9.0 0.00 0.00 0.04 80 1014.2
20260507094103 0 171 7.0 8.0 0.00 0.00 0.04 80 1014.3
20260507093603 0 182 7.0 9.0 0.00 0.00 0.04 78 1014.2
20260507093103 0 190 8.0 9.0 0.00 0.00 0.04 81 1014.3
20260507092603 0 190 5.0 6.0 0.00 0.00 0.04 80 1014.2
20260507092102 0 198 8.0 10.0 0.00 0.00 0.04 81 1014.6
20260507091602 0 177 8.0 11.0 0.00 0.00 0.04 82 1014.3
20260507091103 0 121 7.0 9.0 0.00 0.00 0.04 80 1014.3
20260507090602 0 175 6.0 8.0 0.00 0.00 0.04 84 1014.2
20260507085603 0 177 8.0 9.0 0.00 0.00 0.04 84 1014.2
20260507085103 0 169 4.0 5.0 0.00 0.00 0.04 83 1014.2
20260507084603 0 194 8.0 11.0 0.00 0.00 0.04 84 1014.2
20260507084102 0 163 5.0 6.0 0.00 0.00 0.04 87 1014.2
20260507083603 0 196 4.0 4.0 0.00 0.00 0.04 87 1014.0
20260507083102 0 83 3.0 5.0 0.00 0.00 0.04 88 1014.0
20260507082603 0 86 2.0 2.0 0.00 0.00 0.04 87 1013.7
20260507082103 0 64 1.0 1.0 0.00 0.00 0.04 90 1013.7
20260507081602 0 221 1.0 1.0 0.00 0.00 0.04 89 1014.0
20260507081102 0 342 0.0 1.0 0.00 0.00 0.04 93 1013.7
20260507080603 0 7 3.0 4.0 0.00 0.00 0.04 94 1014.0
20260507080103 0 26 4.0 5.0 0.00 0.00 0.04 96 1013.7
20260507075603 0 53 0.0 0.0 0.03 0.00 0.04 99 1013.7
20260507075102 0 78 0.0 0.0 0.03 0.00 0.04 99 1013.7
20260507074602 0 104 2.0 3.0 0.03 0.00 0.04 99 1013.8
20260507074103 0 99 0.0 1.0 0.03 0.00 0.04 99 1013.6
20260507073602 0 87 0.0 1.0 0.03 0.00 0.04 97 1013.7
20260507073102 0 155 2.0 3.0 0.02 0.00 0.03 95 1013.7
20260507072602 0 210 3.0 3.0 0.01 0.00 0.02 91 1013.6
20260507072103 0 213 1.0 1.0 0.00 0.00 0.01 87 1013.6
20260507071603 0 302 1.0 1.0 0.00 0.00 0.01 85 1013.6
20260507071103 0 12 0.0 1.0 0.00 0.00 0.01 84 1013.7
20260507070604 0 46 0.0 0.0 0.00 0.00 0.01 92 1013.7
20260507065602 0 74 0.0 1.0 0.00 0.00 0.01 96 1013.7
20260507065103 0 171 2.0 2.0 0.00 0.00 0.01 97 1013.7
20260507064602 0 165 3.0 4.0 0.00 0.00 0.01 96 1013.5
20260507064103 0 172 1.0 2.0 0.00 0.00 0.01 96 1013.5
20260507063603 0 45 0.0 0.0 0.00 0.00 0.01 93 1013.3
20260507063103 0 113 1.0 1.0 0.00 0.00 0.01 92 1013.2
20260507062602 0 101 1.0 1.0 0.00 0.00 0.01 89 1013.2
20260507062102 0 44 0.0 1.0 0.00 0.00 0.01 92 1013.2
20260507061602 0 36 0.0 0.0 0.00 0.00 0.01 95 1013.3
20260507061102 0 80 0.0 1.0 0.00 0.00 0.01 96 1013.2
20260507060603 0 73 0.0 1.0 0.00 0.00 0.01 98 1013.3
20260507055603 0 20 0.0 1.0 0.01 0.00 0.01 99 1013.2
20260507055103 0 195 0.0 0.0 0.01 0.00 0.01 99 1013.5
20260507054603 0 85 0.0 1.0 0.01 0.00 0.01 99 1013.3
20260507054102 0 43 0.0 0.0 0.01 0.00 0.01 99 1013.2
20260507053602 0 99 0.0 0.0 0.01 0.00 0.01 99 1013.1
20260507053103 0 58 0.0 1.0 0.01 0.00 0.01 99 1013.2
20260507052602 0 48 0.0 0.0 0.01 0.00 0.01 99 1013.0
20260507052103 0 47 0.0 0.0 0.01 0.00 0.01 99 1013.0
20260507051603 0 58 0.0 0.0 0.01 0.00 0.01 99 1012.8
20260507051102 0 173 1.0 1.0 0.01 0.00 0.01 99 1012.8
20260507050602 0 84 0.0 1.0 0.01 0.00 0.01 99 1012.8
20260507045603 0 180 1.0 2.0 0.00 0.00 0.00 99 1012.7
20260507045102 0 88 0.0 0.0 0.00 0.00 0.00 99 1012.7
20260507044602 0 123 0.0 1.0 0.00 0.00 0.00 99 1012.7
20260507044102 0 130 0.0 0.0 0.00 0.00 0.00 99 1012.7
20260507043602 0 178 2.0 3.0 0.00 0.00 0.00 99 1012.7
20260507043103 0 47 0.0 0.0 0.00 0.00 0.00 99 1012.7
20260507042603 0 160 1.0 1.0 0.00 0.00 0.00 99 1012.7
20260507042102 0 193 2.0 2.0 0.00 0.00 0.00 99 1012.2
20260507041603 0 89 0.0 1.0 0.00 0.00 0.00 99 1012.6
20260507041103 0 204 1.0 2.0 0.00 0.00 0.00 99 1012.3
20260507040603 0 61 0.0 0.0 0.00 0.00 0.00 99 1012.7
20260507035603 0 79 0.0 0.0 0.00 0.00 0.00 99 1012.7
20260507035102 0 79 0.0 0.0 0.00 0.00 0.00 99 1012.6
20260507034602 0 183 1.0 2.0 0.00 0.00 0.00 99 1012.7
20260507034102 0 185 1.0 1.0 0.00 0.00 0.00 99 1012.6
20260507033603 0 79 0.0 0.0 0.00 0.00 0.00 99 1012.5
20260507032603 0 78 0.0 0.0 0.00 0.00 0.00 99 1012.5
20260507032103 0 78 0.0 0.0 0.00 0.00 0.00 99 1012.5
20260507031602 0 78 0.0 0.0 0.00 0.00 0.00 99 1012.3
20260507031103 0 78 0.0 0.0 0.00 0.00 0.00 99 1012.6
20260507030603 0 177 1.0 2.0 0.00 0.00 0.00 99 1012.2
20260507025603 0 185 1.0 1.0 0.00 0.00 0.00 99 1012.3
20260507025103 0 62 0.0 0.0 0.00 0.00 0.00 99 1012.3
20260507024602 0 183 1.0 2.0 0.00 0.00 0.00 99 1012.2
20260507024102 0 60 0.0 0.0 0.00 0.00 0.00 99 1012.5
20260507023602 0 61 0.0 0.0 0.00 0.00 0.00 99 1012.3
20260507023103 0 60 0.0 0.0 0.00 0.00 0.00 99 1012.6
20260507022602 0 83 0.0 0.0 0.00 0.00 0.00 99 1012.2
20260507022102 0 85 0.0 0.0 0.00 0.00 0.00 99 1012.5
20260507021603 0 86 0.0 1.0 0.00 0.00 0.00 99 1012.5
20260507021103 0 110 0.0 1.0 0.00 0.00 0.00 99 1012.3
20260507020603 0 75 0.0 0.0 0.00 0.00 0.00 99 1012.5
20260507015602 0 84 0.0 0.0 0.00 0.00 0.00 99 1012.3
20260507015103 0 78 0.0 0.0 0.00 0.00 0.00 99 1012.6
20260507014604 0 78 0.0 0.0 0.00 0.00 0.00 99 1012.5
20260507014103 0 236 0.0 1.0 0.00 0.00 0.00 99 1012.5
20260507013602 0 182 1.0 2.0 0.00 0.00 0.00 99 1012.2
20260507012602 0 101 0.0 0.0 0.00 0.00 0.00 99 1012.5
20260507012103 0 61 0.0 0.0 0.00 0.00 0.00 99 1012.6
20260507011603 0 9 0.0 0.0 0.00 0.00 0.00 99 1012.5
20260507011103 0 66 0.0 0.0 0.00 0.00 0.00 99 1012.3
20260507010603 0 63 0.0 0.0 0.00 0.00 0.00 99 1012.6
20260507010104 0 73 0.0 0.0 0.00 0.00 0.00 99 1012.3
20260507005602 0 115 0.0 1.0 0.00 0.00 0.00 99 1012.6
20260507005102 0 179 0.0 1.0 0.00 0.00 0.00 99 1012.3
20260507004603 0 72 0.0 0.0 0.00 0.00 0.00 99 1012.5
20260507004103 0 160 1.0 1.0 0.00 0.00 0.00 99 1012.6
20260507003602 0 173 1.0 2.0 0.00 0.00 0.00 99 1012.7
20260507003102 0 67 0.0 0.0 0.00 0.00 0.00 99 1012.7
20260507002602 0 123 1.0 1.0 0.00 0.00 0.00 99 1012.6
20260507002103 0 203 0.0 1.0 0.00 0.00 0.00 99 1012.3
20260507001602 0 238 0.0 1.0 0.00 0.00 0.00 99 1012.7
20260507001102 0 171 0.0 1.0 0.00 0.00 0.00 99 1012.5
20260507000602 0 76 0.0 1.0 0.00 0.00 0.00 99 1012.6
20260506235602 0 94 0.0 1.0 0.00 0.00 0.00 99 1012.7
20260506235102 0 81 0.0 0.0 0.00 0.00 0.00 99 1012.7
20260506234603 0 234 0.0 1.0 0.00 0.00 0.00 99 1012.7
20260506234102 0 102 0.0 0.0 0.00 0.00 0.00 99 1012.8
20260506233602 0 84 0.0 0.0 0.00 0.00 0.00 99 1012.6
20260506233103 0 130 0.0 1.0 0.00 0.00 0.00 99 1012.8
20260506232603 0 103 0.0 1.0 0.00 0.00 0.00 99 1012.7
20260506232102 0 37 0.0 0.0 0.00 0.00 0.00 99 1012.7
20260506231603 0 27 0.0 0.0 0.00 0.00 0.00 99 1012.7
20260506231103 0 15 0.0 0.0 0.00 0.00 0.00 99 1012.7
20260506230603 0 125 1.0 1.0 0.00 0.00 0.00 99 1012.8
20260506225603 0 187 1.0 2.0 0.00 0.00 1.29 99 1012.7
20260506225103 0 70 0.0 0.0 0.00 0.00 1.29 99 1012.6
20260506224602 0 93 1.0 1.0 0.00 0.00 1.29 99 1012.6
20260506224103 0 173 1.0 1.0 0.00 0.00 1.29 99 1012.7
20260506223604 0 70 0.0 0.0 0.00 0.00 1.29 99 1012.6
20260506223103 0 93 0.0 0.0 0.00 0.00 1.29 99 1012.6
20260506222603 0 69 0.0 0.0 0.00 0.00 1.29 99 1012.3
20260506221603 0 109 0.0 1.0 0.00 0.00 1.29 99 1012.7
20260506221102 0 153 1.0 2.0 0.00 0.00 1.29 99 1012.6
20260506220603 0 153 0.0 1.0 0.00 0.00 1.29 99 1012.6
20260506215602 0 82 0.0 0.0 0.00 0.00 1.29 99 1012.7
20260506215102 0 198 1.0 1.0 0.00 0.00 1.29 99 1012.7
20260506214602 0 78 0.0 0.0 0.00 0.00 1.29 99 1012.5
20260506214103 0 77 0.0 1.0 0.00 0.00 1.29 99 1012.6
20260506213602 0 163 1.0 1.0 0.00 0.00 1.29 99 1012.7
20260506213103 0 222 1.0 1.0 0.00 0.00 1.29 99 1012.7
20260506212603 0 82 0.0 1.0 0.00 0.00 1.29 99 1012.5
20260506212102 0 65 0.0 1.0 0.00 0.00 1.29 99 1012.5
20260506211603 0 222 1.0 1.0 0.00 0.00 1.29 99 1012.5
20260506211102 0 86 0.0 0.0 0.00 0.00 1.29 99 1012.5
20260506210603 0 47 0.0 0.0 0.00 0.00 1.29 99 1012.6
20260506205602 0 53 0.0 0.0 0.00 0.00 1.29 99 1012.5
20260506205102 0 77 0.0 0.0 0.00 0.00 1.29 99 1012.5
20260506204602 0 83 0.0 1.0 0.00 0.00 1.29 99 1012.7
20260506204103 0 206 1.0 1.0 0.00 0.00 1.29 99 1012.6
20260506203602 0 50 0.0 1.0 0.00 0.00 1.29 99 1012.5
20260506203103 0 7 0.0 0.0 0.00 0.00 1.29 99 1012.5
20260506202603 0 335 1.0 1.0 0.00 0.00 1.29 99 1012.5
20260506202103 0 49 0.0 0.0 0.00 0.00 1.29 99 1012.3
20260506201603 0 44 0.0 0.0 0.00 0.00 1.29 99 1012.3
20260506201102 0 61 0.0 0.0 0.00 0.00 1.29 99 1012.5
20260506200603 0 167 0.0 1.0 0.00 0.00 1.29 99 1012.2
20260506195603 0 133 1.0 2.0 0.00 0.00 1.29 99 1012.1
20260506195102 0 164 1.0 1.0 0.00 0.00 1.29 99 1012.0
20260506194603 0 135 2.0 2.0 0.00 0.00 1.29 98 1012.0
20260506194103 0 166 2.0 2.0 0.00 0.00 1.29 99 1011.7
20260506193603 0 81 1.0 2.0 0.00 0.00 1.29 99 1011.8
20260506193103 0 79 0.0 1.0 0.00 0.00 1.29 99 1011.7
20260506192602 0 65 0.0 0.0 0.00 0.00 1.29 99 1011.7
20260506192102 0 187 1.0 1.0 0.00 0.00 1.29 98 1011.5
20260506191602 0 7 0.0 0.0 0.00 0.00 1.29 98 1011.6
20260506191102 0 44 1.0 1.0 0.00 0.00 1.29 98 1011.6
20260506190603 0 118 1.0 1.0 0.00 0.00 1.29 98 1011.2
20260506185602 0 35 0.0 0.0 0.00 0.00 1.29 96 1011.2
20260506185103 0 80 0.0 1.0 0.00 0.00 1.29 95 1011.2
20260506184603 0 56 0.0 1.0 0.00 0.00 1.29 95 1011.2
20260506184103 0 49 0.0 0.0 0.00 0.00 1.29 94 1011.2
20260506183603 0 191 1.0 2.0 0.00 0.00 1.29 93 1011.0
20260506183102 0 100 1.0 1.0 0.00 0.00 1.29 93 1011.0
20260506182602 0 130 1.0 2.0 0.00 0.00 1.29 93 1010.7
20260506182103 0 198 2.0 3.0 0.00 0.00 1.29 93 1010.7
20260506181603 0 157 1.0 1.0 0.00 0.00 1.29 92 1010.8
20260506181102 0 128 0.0 1.0 0.00 0.00 1.29 90 1010.7
20260506180602 0 80 0.0 1.0 0.00 0.00 1.29 90 1010.7
20260506175603 0 119 1.0 2.0 0.00 0.00 1.29 88 1010.7
20260506175103 0 192 4.0 4.0 0.00 0.00 1.29 88 1010.6
20260506174602 0 148 3.0 3.0 0.00 0.00 1.29 88 1010.3
20260506174103 0 128 4.0 5.0 0.00 0.00 1.29 88 1010.3
20260506173603 0 169 2.0 3.0 0.00 0.00 1.29 88 1010.3
20260506173103 0 10 1.0 2.0 0.00 0.00 1.29 88 1010.2
20260506172603 0 173 3.0 4.0 0.00 0.00 1.29 87 1010.1
20260506172102 0 165 5.0 6.0 0.00 0.00 1.29 88 1010.3
20260506171602 0 184 3.0 4.0 0.00 0.00 1.29 87 1010.3
20260506171102 0 172 6.0 9.0 0.00 0.00 1.29 87 1010.2
20260506170602 0 118 4.0 4.0 0.00 0.00 1.29 87 1010.2
20260506170104 0 161 2.0 3.0 0.00 0.00 1.29 87 1010.1
20260506165603 0 214 2.0 3.0 0.00 0.00 1.29 87 1010.2
20260506165102 0 36 2.0 2.0 0.00 0.00 1.29 85 1010.2
20260506164603 0 185 3.0 4.0 0.00 0.00 1.29 87 1010.2
20260506164102 0 169 3.0 4.0 0.00 0.00 1.29 86 1010.1
20260506163602 0 12 0.0 1.0 0.00 0.00 1.29 87 1010.2
20260506163102 0 187 5.0 6.0 0.00 0.00 1.29 87 1010.2
20260506162603 0 145 4.0 5.0 0.00 0.00 1.29 88 1010.2
20260506162103 0 114 5.0 6.0 0.00 0.00 1.29 86 1010.2
20260506161602 0 167 5.0 6.0 0.00 0.00 1.29 87 1010.2
20260506161102 0 174 5.0 6.0 0.00 0.00 1.29 86 1010.2
20260506160603 0 123 2.0 3.0 0.00 0.00 1.29 86 1010.1
20260506155602 0 152 4.0 5.0 0.00 0.00 1.29 86 1010.2
20260506155102 0 180 0.0 1.0 0.00 0.00 1.29 87 1010.2
20260506154603 0 146 2.0 2.0 0.00 0.00 1.29 88 1010.1
20260506154103 0 161 3.0 3.0 0.00 0.00 1.29 87 1010.2
20260506153602 0 172 5.0 6.0 0.00 0.00 1.29 87 1010.0
20260506153104 0 185 4.0 5.0 0.00 0.00 1.29 88 1009.8
20260506152602 0 157 2.0 3.0 0.00 0.00 1.29 87 1009.8
20260506152103 0 190 7.0 9.0 0.00 0.00 1.29 86 1009.8
20260506151602 0 149 7.0 9.0 0.00 0.00 1.29 85 1009.7
20260506151102 0 81 0.0 0.0 0.00 0.00 1.29 84 1010.0
20260506150602 0 173 4.0 4.0 0.00 0.00 1.29 82 1010.0
20260506145602 0 204 2.0 2.0 0.00 0.00 1.29 82 1010.0
20260506145103 0 118 3.0 3.0 0.00 0.00 1.29 82 1009.8
20260506144602 0 161 5.0 6.0 0.00 0.00 1.29 84 1010.0
20260506144104 0 72 0.0 0.0 0.00 0.00 1.29 82 1009.8
20260506143604 0 183 5.0 6.0 0.00 0.00 1.29 82 1009.7
20260506143102 0 137 2.0 4.0 0.00 0.00 1.29 84 1009.7
20260506142603 0 183 3.0 3.0 0.00 0.00 1.29 84 1010.0
20260506142102 0 177 4.0 5.0 0.00 0.00 1.29 83 1009.6
20260506141603 0 188 3.0 4.0 0.00 0.00 1.29 82 1009.7
20260506141103 0 176 3.0 3.0 0.00 0.00 1.29 83 1009.7
20260506140603 0 165 5.0 6.0 0.00 0.00 1.29 85 1009.8
20260506135603 0 146 2.0 2.0 0.00 0.00 1.29 87 1009.8
20260506135103 0 142 2.0 3.0 0.00 0.00 1.29 86 1009.7
20260506134603 0 98 1.0 2.0 0.00 0.00 1.29 88 1010.0
20260506134103 0 149 7.0 9.0 0.00 0.00 1.29 88 1010.2
20260506133602 0 114 1.0 2.0 0.00 0.00 1.29 88 1010.2
20260506133103 0 107 5.0 6.0 0.00 0.00 1.29 89 1010.1
20260506132603 0 112 5.0 6.0 0.00 0.00 1.29 88 1010.1
20260506132103 0 165 4.0 5.0 0.00 0.00 1.29 89 1010.1
20260506131603 0 135 3.0 4.0 0.00 0.00 1.29 89 1010.1
20260506131103 0 182 2.0 2.0 0.00 0.00 1.29 90 1010.2
20260506130603 0 144 5.0 6.0 0.00 0.00 1.29 90 1009.8
20260506130103 0 147 4.0 5.0 0.00 0.00 1.29 90 1010.2
20260506125603 0 108 6.0 9.0 0.00 0.00 1.29 89 1010.0
20260506125102 0 181 4.0 5.0 0.00 0.00 1.29 88 1010.0
20260506124603 0 187 4.0 5.0 0.00 0.00 1.29 88 1010.1
20260506124102 0 172 6.0 8.0 0.00 0.00 1.29 86 1009.7
20260506123603 0 136 3.0 4.0 0.00 0.00 1.29 86 1009.8
20260506123103 0 116 4.0 5.0 0.00 0.00 1.29 87 1010.1
20260506122603 0 169 2.0 2.0 0.00 0.00 1.29 87 1010.0
20260506122103 0 161 4.0 4.0 0.00 0.00 1.29 85 1010.1
20260506121603 0 185 4.0 5.0 0.00 0.00 1.29 86 1009.8
20260506121103 0 174 7.0 9.0 0.00 0.00 1.29 84 1010.0
20260506120603 0 182 7.0 9.0 0.00 0.00 1.29 84 1009.8
20260506115602 0 189 5.0 5.0 0.00 0.00 1.29 84 1010.0
20260506115102 0 182 8.0 10.0 0.00 0.00 1.29 82 1010.0
20260506114603 0 198 2.0 3.0 0.00 0.00 1.29 82 1010.0
20260506114102 0 135 4.0 5.0 0.00 0.00 1.29 83 1009.7
20260506113603 0 179 6.0 8.0 0.00 0.00 1.29 82 1010.1
20260506113103 0 212 2.0 3.0 0.00 0.00 1.29 81 1010.0
20260506112603 0 148 3.0 3.0 0.00 0.00 1.29 83 1010.0
20260506112102 0 125 2.0 3.0 0.00 0.00 1.29 82 1009.8
20260506111603 0 90 2.0 3.0 0.00 0.00 1.29 85 1010.1
20260506111103 0 186 4.0 5.0 0.00 0.00 1.29 85 1010.2
20260506110603 0 218 3.0 3.0 0.00 0.00 1.29 87 1010.1